Location: Elk Horn Observatory
(36.6768°N, 80.8309°W)
Time: 01:07:17
(UTC-04:00)

Envisat - Pass Details

Date: 31 January 2019
Orbit: 764 x 766 km, 98.1° (Epoch: 18 October)

Event Time Altitude Azimuth Distance (km) Brightness Sun altitude
Rises 19:30:37 0° 178° (S) 3,215 6.3 -20.8°
Reaches altitude 10° 19:32:58 10° 182° (S) 2,293 5.6 -21.3°
Maximum altitude 19:37:54 54° 260° (W) 921 3.7 -22.3°
Drops below altitude 10° 19:42:53 10° 338° (NNW) 2,307 5.7 -23.3°
Sets 19:45:15 0° 343° (NNW) 3,237 6.4 -23.7°
